Regional Weather Roundup
Issued by NWS

Home | Current Version | Previous Version | Graphics & Text | Print | Product List | Glossary On
Versions: 1 2 3 4 5 6 7 8 9 10 11 12 13 14 15 16 17 18 19 20 21 22 23 24 25 26 27 28 29 30 31 32 33 34 35 36 37 38 39 40 41 42 43 44 45 46 47 48 49 50
000
ASUS43 KDMX 261407
RWRIA

WEATHER ROUNDUP FOR IOWA
NATIONAL WEATHER SERVICE DES MOINES IA
800 AM CST MON JAN 26 2015

NOTE: "FAIR" INDICATES FEW OR NO CLOUDS BELOW 12,000 FEET WITH NO
SIGNIFICANT WEATHER AND/OR OBSTRUCTIONS TO VISIBILITY.

* - THESE STATIONS ARE NOT NWS STATIONS...THUS NOT UNDER NWS
QUALITY CONTROL.  THEY ALSO DO NOT REPORT WEATHER SUCH
AS PRECIPITATION OR FOG.

IAZ001>003-012>014-020>022-031>034-043>046-261500-
   NORTHWEST IOWA

CITY           SKY/WX    TMP DP  RH WIND       PRES   REMARKS
CARROLL *      CLOUDY    34  30  86 SW12G20   29.82R WCI  25
CHEROKEE *     MOCLDY    34  32  93 SW7       29.80F WCI  28
DENISON *      PTCLDY    32  30  93 SW10      29.83R WCI  24
LE MARS *      CLEAR     36  32  87 W8        29.83R WCI  29
ORANGE CITY *  CLEAR     36  30  80 W13       29.80R WCI  27
SHELDON *      PTCLDY    34  34 100 W15       29.77S WCI  24
SIOUX CITY     CLEAR     34  30  85 W8        29.83S WCI  27
SPENCER        CLOUDY    35  30  82 W15       29.75F WCI  25
STORM LAKE *   CLOUDY    34  32  93 W20       29.78F WCI  22
$$

IAZ055>058-069>071-079>083-090>094-261500-
   SOUTHWEST IOWA

CITY           SKY/WX    TMP DP  RH WIND       PRES   REMARKS
ATLANTIC *     MOCLDY    28  28 100 SW12      29.85F WCI  18
AUDUBON *      MOCLDY    30  28  93 SW13      29.83F WCI  20
CLARINDA *     CLEAR     27  27 100 S9        29.92F WCI  17
COUNCIL BLFS * CLEAR     30  30 100 SW12      29.86S WCI  21
CRESTON *      CLOUDY    30  30 100 SW14      29.87F WCI  20
HARLAN  *      PTCLDY    28  28 100 SW9       29.89R WCI  20
LAMONI         MOCLDY    27  25  92 S12       29.91F WCI  17
RED OAK *      CLEAR     27  25  93 SW9       29.88F WCI  17
SHENANDOAH *   CLEAR     30  28  93 S10       29.90F WCI  21
$$

IAZ047>049-059>061-072>074-084-261500-
   CENTRAL IOWA

CITY           SKY/WX    TMP DP  RH WIND       PRES   REMARKS
AMES           CLOUDY    32  28  85 SW14      29.81F WCI  22
ANKENY *       MOCLDY    32  28  86 SW15G21   29.84F WCI  22
CHARITON *     CLOUDY    30  28  93 SW10      29.90F WCI  21
DES MOINES     MOCLDY    33  27  78 SW17      29.83F WCI  22
GRINNELL*      CLOUDY    30  28  93 S14       29.83F WCI  20
KNOXVILLE *    CLOUDY    32  27  80 SW15      29.85F WCI  22
MARSHALLTOWN   CLOUDY    31  28  89 S14G23    29.79F WCI  21
PELLA *        RAIN      32  28  86 S13G21    29.87F WCI  22
PERRY *          N/A     32  30  93 SW14      29.81F WCI  22
$$

IAZ004>006-015-016-023>025-035-036-261500-
   NORTH CENTRAL IOWA

CITY           SKY/WX    TMP DP  RH WIND       PRES   REMARKS
ALGONA *       CLOUDY    34  34 100 SW22G30   29.74R WCI  22
CLARION *      CLOUDY    32  32 100 SW14G23   29.76R WCI  22
ESTHERVILLE    CLOUDY    34  30  85 W17       29.74R WCI  23
FORT DODGE *   CLOUDY    34  28  80 SW16G26   29.77F WCI  23
MASON CITY     CLOUDY    32  29  88 SW9       29.79R WCI  24
FOREST CITY *  CLOUDY    32  32 100 SW7       29.77R WCI  26
IOWA FALLS *   CLOUDY    32  30  93 S13       29.77S WCI  22
$$

IAZ007>011-017>019-026>030-037>042-050>054-066-261500-
   NORTHEAST IOWA

CITY           SKY/WX    TMP DP  RH WIND       PRES   REMARKS
CEDAR RAPIDS   LGT SNOW  23  20  88 S10       29.87F FOG     WCI  12
CHARLES CITY * CLOUDY    30  30 100 S12       29.79S WCI  21
CLINTON *      CLOUDY    18  14  86 S6        29.97F WCI   9
DECORAH *      CLOUDY    23  21  93 S10       29.81F WCI  12
DUBUQUE        LGT SNOW  19  14  81 S12       29.89F WCI   7
MONTICELLO *   LGT SNOW  21  21 100 S9        29.89F VSB 1   WCI  11
OELWEIN *      CLOUDY    25  23  93 SE10G18   29.85R WCI  15
WATERLOO       CLOUDY    28  26  92 S8        29.81F WCI  20
$$

IAZ064-065-067-068-078-261500-
   EAST CENTRAL IOWA

CITY           SKY/WX    TMP DP  RH WIND       PRES   REMARKS
DAVENPORT      CLOUDY    20  13  74 S9        29.95F WCI   9
IOWA CITY      LGT SNOW  23  20  88 S7        29.93F FOG     WCI  15
MT. PLEASANT * CLOUDY    27  23  86 S10       29.96F WCI  17
MUSCATINE *    MIX PCPN  25  21  86 S12       29.96F WCI  14
QUAD CITIES    CLOUDY    21  14  74 S5        29.96F WCI  15
$$

IAZ062-063-075>077-085>089-095>099-261500-
   SOUTHEAST IOWA

CITY           SKY/WX    TMP DP  RH WIND       PRES   REMARKS
BURLINGTON     CLOUDY    25  21  85 S7        29.97F WCI  17
FAIRFIELD *    CLOUDY    28  27  93 S8        29.95F WCI  20
FORT MADISON * CLOUDY    28  25  86 S7        29.99F WCI  21
KEOKUK *       CLOUDY    28  25  86 S6        29.99F WCI  22
OSKALOOSA *    MIX PCPN  30  28  93 S14       29.89F WCI  20
CENTERVILLE *    N/A     30  30 100 S8        29.95F WCI  23
OTTUMWA        CLOUDY    31  28  89 S8        29.92F WCI  23
WASHINGTON *   CLOUDY    27  27 100 S13       29.93F FOG     WCI  16
$$

ABBREVIATIONS USED IN REMARKS
   TC - TEMPERATURES IN CELSIUS
  WCI - WIND CHILL INDEX
   HX - HEAT INDEX
  VSB - VISIBILITY
$$




USA.gov is the U.S. government's official web portal to all federal, state and local government web resources and services.